Location: Pedholt
(56.0260°N, 10.2097°E)
Time: 02:26:37
(UTC+00:00)

Transit 2A Rocket - Pass Details

Date: 31 July 2021
Orbit: 586 x 917 km, 66.7° (Epoch: 27 September)

Event Time Altitude Azimuth Distance (km) Brightness Sun altitude
Rises 21:27:09 0° 315° (NW) 3,186 9.9 -11.8°
Reaches altitude 10° 21:29:26 10° 314° (NW) 2,310 8.8 -12.0°
Maximum altitude 21:34:46 79° 230° (SW) 838 5.2 -12.3°
Enters shadow 21:39:17 17° 145° (SE) 2,029 6.5 -12.6°
Drops below altitude 10° 21:40:35 10° 144° (SE) 2,507 - -12.7°
Sets 21:43:09 0° 143° (SE) 3,477 - -12.9°
